Regional Weather Roundup
Issued by NWS Upton, NY

Current Version | Previous Version | Graphics & Text | Print | Product List | Glossary On
Versions: 1 2 3 4 5 6 7 8 9 10 11 12 13 14 15 16 17 18 19 20 21 22 23 24 25 26 27 28 29 30 31 32 33 34 35 36 37 38 39 40 41 42 43 44 45 46 47 48 49 50
000
ASUS41 KOKX 210215
RWROKX

Regional Weather Roundup
National Weather Service New York NY
1000 PM EDT SUN JUN 20 2021

Note: "FAIR" indicates few or no clouds below 12,000 feet with no
significant weather and/or obstructions to visibility.

NYZ071-072-176-178-NJZ106-104-210300-
New York City Metro Area

CITY           SKY/WX    TMP DP  RH WIND       PRES   REMARKS
Central Park   PTCLDY    80  67  64 CALM      29.82R
Bronx Lehman C   N/A     81  68  65 S5          N/A
LaGuardia Arpt PTCLDY    81  67  62 S7        29.79R
Queens College   N/A     77  68  73 SW8         N/A
Kennedy Intl   PTCLDY    73  67  81 S10       29.81R
Breezy Point     N/A     70 N/A N/A S6          N/A
Brooklyn Coll    N/A     79  70  73 S8          N/A
Staten Island    N/A     81  70  69 S6          N/A
Newark/Liberty MOCLDY    84  68  58 S9        29.78R
Teterboro      PTCLDY    80  67  64 S7        29.78R
$$

NYZ177-179-078>081-210300-
Long Island New York

CITY           SKY/WX    TMP DP  RH WIND       PRES   REMARKS
Jones Beach      N/A     70 N/A N/A SW6         N/A
Wantagh          N/A     73  68  83 SW7         N/A
Hempstead      NOT AVBL
Matinecock Pt    N/A     77 N/A N/A SW8         N/A
Farmingdale    PTCLDY    76  67  73 SW10      29.81R
MacArthur/ISP  PTCLDY    73  69  87 SW10      29.82R
Shirley        PTCLDY    73  66  78 S7        29.83R
Mt Sinai Harb    N/A     75 N/A N/A S8          N/A
Westhampton    CLEAR     70  66  87 S5        29.84R
East Hampton   MOCLDY    69  66  93 SW6       29.83R
Southold         N/A     72  66  83 S7          N/A
Montauk          N/A     70  66  87 S6        29.85R
$$

NYZ052-065-067-210300-
Hudson Valley

CITY           SKY/WX    TMP DP  RH WIND       PRES   REMARKS
White Plains   PTCLDY    73  66  78 S5        29.81R
Larchmont Harb   N/A     72 N/A N/A S5          N/A
Croton On Huds   N/A     75 N/A N/A MISG        N/A
Somers           N/A     72  68  88 SE3         N/A
Brewster         N/A     70  68  94 SW1         N/A
Newburgh       PTCLDY    77  70  78 VRB6      29.80R
Montgomery     PTCLDY    73  70  90 CALM      29.78R
Otisville        N/A     72  70  94 W1          N/A
Warwick          N/A     77  70  78 S5          N/A
Suffern          N/A     73  68  83 E1          N/A
Poughkeepsie   MOCLDY    78  68  71 SE6       29.78R
Albany         PTCLDY    73  65  75 S3        29.76R
$$

NJZ001-105-106-008-010-013-015-019>022-104-210300-
New Jersey

CITY           SKY/WX    TMP DP  RH WIND       PRES   REMARKS
Newark/Liberty MOCLDY    84  68  58 S9        29.78R
Teterboro      PTCLDY    80  67  64 S7        29.78R
Caldwell       PTCLDY    83  66  56 CALM      29.79R
Somerville     PTCLDY    75  68  78 CALM      29.77R
Linden         FAIR      83  66  55 S7        29.79R
Perth Amboy      N/A     81 N/A N/A NE9G16      N/A
Sussex         MOCLDY    74  70  87 CALM      29.80R
Andover          N/A     73  70  90 CALM      29.81R
Trenton        PTCLDY    79  71  76 S8        29.78S
Millville      PTCLDY    77  70  79 CALM      29.80S
Atlantic City  PTCLDY    76  71  85 S5        29.81R
Wrightstown    PTCLDY    76  68  77 S3        29.79R
Toms River     NOT AVBL
Belmar         PTCLDY    78  69  73 S6        29.82R
$$

PAZ047>061-062-071-210300-
Eastern Pennsylvania

CITY           SKY/WX    TMP DP  RH WIND       PRES   REMARKS
Philadelphia   CLOUDY    81  70  69 S6        29.79R
Allentown      NOT AVBL
Scranton       PTCLDY    80  68  66 VRB6      29.78S
$$

CTZ002-004>006-009-010-012-RIZ004-006-007-MAZ004-011-015-210300-
Southern New England

 In CT

CITY           SKY/WX    TMP DP  RH WIND       PRES   REMARKS
Bradley Intl   PTCLDY    77  66  68 S10       29.80R
Hartford       CLEAR     77  66  68 S6        29.80R
Danbury        PTCLDY    76  68  76 S6        29.83R
Wtrbury/Oxford PTCLDY    73  72  96 S7        29.84R
Norwalk Harbor   N/A     73 N/A N/A SW5         N/A
Bridgeport     PTCLDY    75  68  78 CALM      29.81R
Meriden        PTCLDY    75  66  73 S5        29.81R
New Haven      PTCLDY    73  68  84 S3        29.82R
Chester        FAIR      72  68  88 S6        29.83S
Groton         MOCLDY    69  64  84 CALM      29.82R
Willimantic    CLEAR     74  66  76 S5        29.83R

 In RI

CITY           SKY/WX    TMP DP  RH WIND       PRES   REMARKS
Providence     CLEAR     73  65  75 SW8       29.83R
Block Island   PTCLDY    66  63  90 SW14      29.85R
Westerly       CLEAR     67  63  87 SW6       29.85R

In MA

CITY           SKY/WX    TMP DP  RH WIND       PRES   REMARKS
Boston         PTCLDY    79  62  56 SW12      29.79R
Worcester      CLEAR     73  64  73 SW10      29.85R
Westfield      PTCLDY    75  68  78 S7        29.79R
Provincetown   CLEAR     67  63  87 S13       29.82R
Nantucket      CLEAR     67  64  90 SW9       29.85S
$$

ANZ330-335-338-340-345-350-353-355-210300-
Coastal Marine Observations


STATION/POSITION TIME  SKY/WX   TEMP    WIND        PRES    VSBY  WAVE
                                AIR SEA DIR/SP/G                  HT/PER
                 (UTC)          (F)     (DEG/KT/KT) (MB)    (MI)  (FT/S)
NY Harb Entrance 0150                   200/ 14/ 17 1008.6          3/ 7
20 S Fire Island 0150               68  170/ 12/ 16 1009.3          4/ 8
Great South Bay  NOT AVBL
23 SSW Montauk P 0150            67 65  190/  8/ 10 1010.5          5/ 8
15 E Barnegat Li 0156               69                N/A           3/ 8
Hudson Canyon    NOT AVBL
Kings Point      0130            74     210/ 12/ 13 1009.8
Execution Rocks  0145                   210/  6/ 14   N/A
Western LI Sound 0130            76     190/ 14/ 16   N/A
Central LI Sound 0100            72 68  190/ 12/ 14   N/A           1/ 2
Robbins Reef     0130            79     180/ 10/ 12 1008.7
$$


>>>>>>>>>>>>>>>>>>>>>>>>>>>> KEY <<<<<<<<<<<<<<<<<<<<<<<<<<<
>                                                          <
>     SKY/WX - Sky Condition/Present Weather               <
>     TMP    - Temperature in Fahrenheit                   <
>     DP     - Dew Point in Fahrenheit                     <
>     RH     - Relative Humidity in Percent                <
>     WIND   - Direction (from) and Speed in MPH           <
>     PRES   - Mean Sea Level Pressure (inches of Hg)      <
>     WCI    - Wind Chill Index                            <
>     VSB    - Visibility in Miles                         <
>     HX     - Heat Index                                  <
>     TC     - Temperature in Celsius                      <
>     VRB    - Variable Wind Direction                     <
>                                                          <
>>>>>>>>>>>>>>>>>>>>>>>>>>>> KEY <<<<<<<<<<<<<<<<<<<<<<<<<<<



USA.gov is the U.S. government's official web portal to all federal, state and local government web resources and services.